[[{"header":{"parameterUnit":"m.s-1","parameterCategory":2,"la1":30.2991,"la2":30.254,"lo1":-89.0895,"lo2":-89.0444,"dy":0.0017,"dx":0.0017,"nx":28,"ny":28,"refTime":"2023-10-07T03:00:00:Z","depth":"0","parameterNumber":2,"parameterNumberName":"U-component_of_CURRENTS"},"data":[0,0,0,0,0,0,0,0,0,0,0,0,0,0,0,0,0,0,0,0,0,0,0,0,0,0,0,0,0,0,0,0,0,0,0,0,0,0,0,0,0,0,0,0,0,0,0,0,0,0,0,0,0,0,0,0,0,0,0.1982,0.1982,0,0.1999,0.1999,0.1999,0.2005,0.2005,0.2005,0.2005,0.2017,0.2017,0.2018,0,0,0,0,0,0,0,0,0,0,0,0,0,0.1956,0.1956,0.1982,0.1982,0.1982,0.1999,0.1999,0.1999,0.2005,0.2005,0.2005,0.2005,0.2017,0.2017,0.2018,0,0,0,0,0,0,0,0,0,0,0,0,0,0.1968,0.1956,0.1982,0.1988,0.1989,0.1999,0.1999,0.1999,0.2005,0.2005,0.2005,0.2005,0.2017,0.2017,0.2018,0.2018,0,0,0.2019,0.2019,0,0,0,0,0,0,0,0,0.1967,0.1968,0.1987,0.1988,0.1989,0.2001,0.1994,0.2006,0.2005,0.1997,0.2005,0.2005,0.2012,0.2013,0.2014,0.2018,0.2019,0.2019,0.2019,0.2019,0.2019,0,0,0,0,0,0,0,0.1966,0.1968,0.1987,0.1988,0.1989,0.1991,0.1993,0.1996,0.2002,0.1998,0.1999,0.2003,0.2013,0.2013,0.2014,0.2019,0.2019,0.2019,0.2019,0.202,0.2027,0.2027,0,0,0,0,0,0,0.1967,0.1967,0.1986,0.1988,0.198,0.1992,0.1994,0.1996,0.2003,0.2004,0.2003,0.2003,0.2013,0.2014,0.2015,0.2032,0.2019,0.202,0.202,0.2027,0.2027,0.2027,0,0,0,0,0,0,0.1967,0.1969,0.1986,0.1979,0.1982,0.1992,0.1995,0.1996,0.2,0.2007,0.2008,0.2006,0.2013,0.2014,0.2017,0.2032,0.202,0.202,0.2027,0.2027,0.2027,0.2056,0,0,0,0,0,0,0.1966,0.1968,0.1969,0.1979,0.1982,0.1996,0.1995,0.1996,0.2003,0.2004,0.201,0.2011,0.2013,0.2016,0.2017,0.2032,0.202,0.2027,0.2027,0.2027,0.2055,0.2057,0.2059,0,0,0,0,0,0.1965,0.1968,0.1969,0.1972,0.1984,0.1996,0.1998,0.2005,0.2003,0.2008,0.2007,0.2011,0.2017,0.2017,0.2018,0.2033,0.2027,0.2027,0.2027,0.2055,0.2057,0.2059,0,0,0,0,0,0,0.1957,0.197,0.1971,0.1978,0.1988,0.1998,0.2003,0.2006,0.2009,0.2008,0.201,0.2011,0.2023,0.2017,0.2017,0.2033,0.2023,0.2023,0.2043,0.2046,0.2047,0.2072,0.2021,0,0,0,0,0,0.1956,0.1962,0.1974,0.198,0.1985,0.1993,0.1998,0.2004,0.2009,0.2011,0.2013,0.2014,0.2023,0.2025,0.203,0.2036,0.2066,0.2045,0.2046,0.2048,0.2067,0.2126,0.2136,0.2027,0.2027,0.2027,0,0,0.1954,0.1962,0.1965,0.1979,0.1986,0.1998,0.1996,0.2007,0.2019,0.2011,0.2022,0.2023,0.2026,0.2037,0.2041,0.2034,0.2092,0.2048,0.205,0.2068,0.2127,0.2138,0.2148,0.2027,0.2027,0.2027,0,0,0.1956,0.1961,0.1968,0.1979,0.1994,0.2002,0.2006,0.2016,0.2023,0.2031,0.2032,0.2044,0.2044,0.2058,0.2063,0.2075,0.2102,0.2068,0.2098,0.2154,0.2164,0.2173,0.2222,0.2236,0.2066,0.2067,0.2067,0,0.1952,0.1964,0.1972,0.1984,0.1998,0.2004,0.2019,0.2027,0.2036,0.2052,0.2037,0.2066,0.206,0.2096,0.2095,0.2084,0.2117,0.2091,0.216,0.2169,0.2179,0.2226,0.2241,0.2068,0.2068,0.2068,0.2067,0,0.1961,0.1973,0.198,0.1999,0.2013,0.2027,0.2043,0.2058,0.2063,0.2075,0.2108,0.2106,0.2132,0.2122,0.2111,0.217,0.2173,0.216,0.2161,0.2192,0.2239,0.2254,0.207,0.2069,0.2069,0.2069,0,0,0.1946,0.1979,0.1982,0.1999,0.2024,0.2038,0.2065,0.2098,0.2132,0.2134,0.2184,0.2183,0.2195,0.2201,0.2195,0.2229,0.2309,0.2221,0.2223,0.2282,0.244,0.2405,0.2417,0.2314,0.2317,0.2319,0.2445,0,0.1951,0.1978,0.1995,0.2026,0.2043,0.207,0.2099,0.2131,0.2159,0.2207,0.2221,0.226,0.2222,0.2244,0.2274,0.2308,0.2351,0.2277,0.239,0.2394,0.237,0.2434,0.2342,0.2444,0.246,0.2463,0.2464,0,0.1953,0.1975,0.2004,0.2053,0.2065,0.2086,0.2153,0.2181,0.2249,0.2274,0.2321,0.2342,0.2399,0.2358,0.2452,0.2409,0.2433,0.2449,0.2454,0.2427,0.2387,0.2415,0.247,0.2457,0.2487,0.2486,0.2484,0,0.194,0.1982,0.2008,0.2023,0.2076,0.2105,0.2137,0.2202,0.2246,0.2331,0.2384,0.2443,0.2496,0.2535,0.2565,0.2524,0.2671,0.2619,0.2613,0.261,0.2557,0.2545,0.2626,0.27,0.2699,0.2699,0.2699,0,0.1938,0.196,0.2007,0.2021,0.2064,0.2106,0.2167,0.2212,0.23,0.2365,0.2421,0.2495,0.2547,0.2626,0.2627,0.2681,0.273,0.2648,0.2653,0.2561,0.2548,0.2553,0.2531,0.2704,0.2703,0.2702,0.2701,0,0.1917,0.1947,0.1978,0.2036,0.2056,0.2087,0.2172,0.2223,0.2311,0.2409,0.2446,0.257,0.2673,0.2721,0.2807,0.2773,0.275,0.2817,0.2702,0.269,0.2627,0.2609,0.2571,0.2485,0.2828,0.2828,0.2828,0,0.1907,0.1922,0.1975,0.1999,0.2025,0.2079,0.2121,0.2209,0.227,0.2446,0.2495,0.2645,0.2724,0.2848,0.2837,0.2867,0.2782,0.2786,0.2678,0.2643,0.2627,0.2497,0.2416,0.2622,0.262,0.2619,0.2618,0,0.1891,0.191,0.194,0.1976,0.2016,0.2063,0.2133,0.2177,0.2297,0.2387,0.2517,0.2605,0.2748,0.2751,0.2808,0.2799,0.2663,0.2757,0.2762,0.2517,0.2342,0.2254,0.252,0.2606,0.2607,0.2608,0.2609,0.2609,0.1881,0.1888,0.1923,0.1954,0.1994,0.2029,0.2044,0.2128,0.2204,0.2317,0.2449,0.255,0.2647,0.2711,0.2693,0.2648,0.2589,0.2569,0.2567,0.2451,0.231,0.2546,0.2604,0.2605,0.2606,0.2607,0.2607,0,0.1853,0.1866,0.1899,0.1921,0.1932,0.1974,0.2036,0.2041,0.2081,0.2221,0.2307,0.2443,0.248,0.2551,0.2569,0.249,0.2325,0.2438,0.2254,0.2193,0.2466,0.24,0.2366,0.2366,0.2366,0.2366,0.2366,0.2366,0.1841,0.1845,0.1853,0.1846,0.1862,0.1851,0.1864,0.1888,0.196,0.2049,0.2142,0.225,0.2464,0.2573,0.2544,0.2462,0.2263,0.2147,0.2137,0.2379,0.239,0.2401,0.2337,0.229,0.229,0.175,0.1747,0.1744]},{"header":{"parameterUnit":"m.s-1","parameterCategory":2,"la1":30.2991,"la2":30.254,"lo1":-89.0895,"lo2":-89.0444,"dy":0.0017,"dx":0.0017,"nx":28,"ny":28,"refTime":"2023-10-07T03:00:00:Z","depth":"0","parameterNumber":3,"parameterNumberName":"V-component_of_CURRENTS"},"data":[0,0,0,0,0,0,0,0,0,0,0,0,0,0,0,0,0,0,0,0,0,0,0,0,0,0,0,0,0,0,0,0,0,0,0,0,0,0,0,0,0,0,0,0,0,0,0,0,0,0,0,0,0,0,0,0,0,0,-0.0126,-0.0127,0,-0.0168,-0.0168,-0.0169,-0.0198,-0.0199,-0.0199,-0.0199,-0.026,-0.0261,-0.0262,0,0,0,0,0,0,0,0,0,0,0,0,0,-0.0108,-0.0108,-0.0126,-0.0127,-0.0127,-0.0168,-0.0169,-0.0169,-0.0198,-0.0199,-0.0199,-0.0199,-0.0259,-0.0261,-0.0263,0,0,0,0,0,0,0,0,0,0,0,0,0,-0.013,-0.0108,-0.0126,-0.0146,-0.0148,-0.0168,-0.0169,-0.0169,-0.0198,-0.0199,-0.0199,-0.0199,-0.0259,-0.0261,-0.0263,-0.0272,0,0,-0.027,-0.0271,0,0,0,0,0,0,0,0,-0.0129,-0.0131,-0.0143,-0.0145,-0.0147,-0.0178,-0.0184,-0.0204,-0.0198,-0.018,-0.0199,-0.0199,-0.0233,-0.0237,-0.0246,-0.0275,-0.0277,-0.027,-0.0271,-0.0272,-0.0273,0,0,0,0,0,0,0,-0.0127,-0.0129,-0.0144,-0.0143,-0.0146,-0.0165,-0.0168,-0.0188,-0.0206,-0.0182,-0.0184,-0.0187,-0.0235,-0.0243,-0.0247,-0.0278,-0.027,-0.0272,-0.0273,-0.0274,-0.0305,-0.0304,0,0,0,0,0,0,-0.0118,-0.0127,-0.0142,-0.0145,-0.0137,-0.0165,-0.0169,-0.0168,-0.0205,-0.0211,-0.0187,-0.0188,-0.024,-0.0245,-0.025,-0.0251,-0.0272,-0.0274,-0.0275,-0.0305,-0.0305,-0.0304,0,0,0,0,0,0,-0.0117,-0.0119,-0.0141,-0.0137,-0.0141,-0.0165,-0.0164,-0.0169,-0.0175,-0.0209,-0.0215,-0.0188,-0.024,-0.0247,-0.026,-0.0254,-0.0275,-0.0277,-0.0306,-0.0305,-0.0304,-0.0262,0,0,0,0,0,0,-0.0117,-0.0118,-0.0114,-0.0136,-0.0141,-0.0144,-0.0164,-0.0169,-0.0176,-0.0179,-0.0211,-0.0218,-0.0241,-0.0256,-0.0262,-0.0258,-0.0279,-0.0306,-0.0305,-0.0305,-0.0264,-0.026,-0.0257,0,0,0,0,0,-0.0116,-0.0106,-0.0114,-0.0116,-0.0135,-0.0144,-0.0148,-0.0167,-0.0176,-0.0174,-0.0195,-0.0216,-0.0254,-0.0258,-0.0264,-0.0261,-0.0307,-0.0306,-0.0305,-0.0266,-0.0261,-0.0257,0,0,0,0,0,0,-0.0096,-0.0109,-0.0118,-0.0113,-0.0124,-0.0148,-0.0148,-0.0161,-0.0177,-0.0179,-0.0212,-0.0219,-0.0228,-0.0248,-0.0251,-0.0266,-0.0284,-0.0284,-0.0252,-0.0247,-0.0244,-0.0238,-0.0281,0,0,0,0,0,-0.0089,-0.0085,-0.0103,-0.0099,-0.0103,-0.0125,-0.0131,-0.0143,-0.016,-0.0167,-0.019,-0.0212,-0.0229,-0.024,-0.0259,-0.0268,-0.0294,-0.0269,-0.0265,-0.0262,-0.0261,-0.03,-0.03,-0.03,-0.03,-0.03,0,0,-0.0081,-0.0087,-0.0086,-0.0094,-0.0106,-0.0105,-0.0129,-0.0133,-0.0133,-0.0171,-0.0177,-0.0199,-0.0228,-0.0237,-0.0244,-0.0254,-0.0272,-0.026,-0.0257,-0.0259,-0.0299,-0.0299,-0.0299,-0.03,-0.03,-0.03,0,0,-0.006,-0.0067,-0.0057,-0.0063,-0.0074,-0.0087,-0.0085,-0.0105,-0.0114,-0.0122,-0.0148,-0.0167,-0.0193,-0.0214,-0.0228,-0.0214,-0.0249,-0.0217,-0.0196,-0.0233,-0.0234,-0.0235,-0.0255,-0.0258,-0.0216,-0.0216,-0.0216,0,-0.0049,-0.0039,-0.0055,-0.0048,-0.0048,-0.0075,-0.0064,-0.0077,-0.0098,-0.0104,-0.0117,-0.0159,-0.0183,-0.02,-0.0194,-0.0206,-0.0228,-0.0212,-0.0229,-0.0231,-0.0232,-0.0253,-0.0257,-0.0214,-0.0214,-0.0215,-0.0215,0,-0.0023,-0.0014,-0.0008,-0.0007,-0.0009,-0.0004,-0.0022,-0.0027,-0.0042,-0.006,-0.008,-0.0117,-0.0143,-0.0152,-0.017,-0.0189,-0.0199,-0.0219,-0.0242,-0.023,-0.0252,-0.0257,-0.0211,-0.0212,-0.0212,-0.0213,0,0,0.0006,0.001,0.0014,0.0024,0.0014,0.0018,0.0018,0.0011,0.0013,-0.002,-0.0026,-0.0063,-0.009,-0.0107,-0.0137,-0.0169,-0.0195,-0.0195,-0.0198,-0.0215,-0.0266,-0.0253,-0.0257,-0.0221,-0.0222,-0.0223,-0.0273,0,0.0034,0.0061,0.0053,0.0079,0.0092,0.0071,0.0078,0.0066,0.0045,0.0031,-0.0018,-0.0035,-0.0072,-0.0082,-0.0122,-0.0175,-0.0208,-0.0179,-0.0275,-0.0277,-0.0268,-0.0262,-0.0245,-0.0287,-0.0278,-0.0279,-0.0279,0,0.0067,0.0081,0.0113,0.0129,0.0133,0.0145,0.0149,0.0149,0.0118,0.0099,0.0059,0.0019,-0.0027,-0.0063,-0.0158,-0.0138,-0.0197,-0.0243,-0.0247,-0.0254,-0.0273,-0.03,-0.0296,-0.0423,-0.0287,-0.0286,-0.0286,0,0.0106,0.0126,0.0156,0.0161,0.0171,0.0185,0.019,0.0173,0.0183,0.0139,0.0137,0.0061,0.0039,-0.0057,-0.0146,-0.0156,-0.025,-0.028,-0.0325,-0.0324,-0.0338,-0.0337,-0.047,-0.0353,-0.0353,-0.0353,-0.0353,0,0.0143,0.0167,0.018,0.0199,0.0241,0.0229,0.0264,0.0251,0.0242,0.0267,0.0177,0.0182,0.0039,-0.0028,-0.013,-0.0231,-0.0241,-0.0319,-0.0338,-0.032,-0.0317,-0.045,-0.0529,-0.0355,-0.0354,-0.0354,-0.0354,0,0.0182,0.0188,0.0227,0.0249,0.0263,0.0293,0.0327,0.0352,0.0327,0.0355,0.0348,0.0274,0.0193,0.0051,-0.0091,-0.019,-0.0376,-0.0336,-0.0293,-0.0307,-0.0467,-0.0543,-0.0701,-0.0778,-0.0401,-0.0401,-0.0401,0,0.0204,0.0229,0.0272,0.0306,0.0322,0.0363,0.0403,0.0399,0.0431,0.043,0.0456,0.0382,0.0359,0.0147,-0.0046,-0.0228,-0.0368,-0.0341,-0.0364,-0.0473,-0.0573,-0.0632,-0.069,-0.0365,-0.0365,-0.0364,-0.0364,0,0.0251,0.0267,0.0301,0.0369,0.0421,0.0473,0.0527,0.0568,0.058,0.0611,0.0649,0.0629,0.0433,0.0261,-0.0001,-0.0139,-0.044,-0.034,-0.0479,-0.0574,-0.0625,-0.0707,-0.0327,-0.0362,-0.0362,-0.0362,-0.0362,-0.0362,0.0291,0.0324,0.0376,0.0441,0.0502,0.0579,0.0636,0.0703,0.0779,0.0839,0.0811,0.0812,0.0534,0.0185,-0.0021,-0.0396,-0.0423,-0.0512,-0.0599,-0.0651,-0.072,-0.0319,-0.036,-0.036,-0.036,-0.036,-0.036,0,0.0341,0.038,0.0445,0.0525,0.0601,0.0619,0.0721,0.0787,0.0902,0.0963,0.1,0.0867,0.0537,0.0174,-0.0319,-0.0596,-0.0725,-0.0767,-0.0866,-0.0918,-0.0579,-0.0572,-0.0629,-0.0629,-0.0629,-0.0629,-0.0629,-0.0629,0.0371,0.0441,0.0471,0.0599,0.0657,0.0762,0.0826,0.0928,0.0998,0.1079,0.1082,0.1043,0.0754,-0.0094,-0.0734,-0.0897,-0.1112,-0.1147,-0.1279,-0.1059,-0.1042,-0.1026,-0.1038,-0.1192,-0.1193,-0.1578,-0.1582,-0.1585]}],[{"header":{"parameterUnit":"m.s-1","parameterCategory":2,"la1":30.2991,"la2":30.254,"lo1":-89.0895,"lo2":-89.0444,"dy":0.0017,"dx":0.0017,"nx":28,"ny":28,"refTime":"2023-10-07T03:00:00:Z","depth":"2","parameterNumber":2,"parameterNumberName":"U-component_of_CURRENTS"},"data":[0,0,0,0,0,0,0,0,0,0,0,0,0,0,0,0,0,0,0,0,0,0,0,0,0,0,0,0,0,0,0,0,0,0,0,0,0,0,0,0,0,0,0,0,0,0,0,0,0,0,0,0,0,0,0,0,0,0,0.1924,0.1924,0,0.1939,0.1939,0.1939,0.1946,0.1946,0.1946,0.1946,0.1961,0.1961,0.1961,0,0,0,0,0,0,0,0,0,0,0,0,0,0.1899,0.1899,0.1924,0.1924,0.1924,0.1939,0.1939,0.1939,0.1946,0.1946,0.1946,0.1947,0.1961,0.1961,0.1961,0,0,0,0,0,0,0,0,0,0,0,0,0,0.191,0.1899,0.1924,0.1931,0.1932,0.1939,0.1939,0.1939,0.1946,0.1946,0.1946,0.1947,0.1961,0.1961,0.1961,0.1959,0,0,0.1963,0.1963,0,0,0,0,0,0,0,0,0.1909,0.1911,0.1929,0.193,0.1931,0.1942,0.1936,0.1946,0.1946,0.1939,0.1946,0.1947,0.1955,0.1956,0.1956,0.196,0.1961,0.1963,0.1963,0.1963,0.1963,0,0,0,0,0,0,0,0.1909,0.191,0.1928,0.193,0.1931,0.1933,0.1935,0.1938,0.1944,0.1939,0.194,0.1945,0.1956,0.1956,0.1957,0.1961,0.1963,0.1963,0.1963,0.1963,0.1973,0.1973,0,0,0,0,0,0,0.191,0.1909,0.1928,0.1929,0.1923,0.1933,0.1935,0.1937,0.1944,0.1946,0.1945,0.1945,0.1955,0.1956,0.1957,0.1977,0.1963,0.1963,0.1964,0.1973,0.1973,0.1973,0,0,0,0,0,0,0.1909,0.1911,0.1927,0.1921,0.1923,0.1934,0.1936,0.1937,0.1943,0.1949,0.195,0.195,0.1955,0.1957,0.1962,0.1977,0.1963,0.1964,0.1973,0.1973,0.1973,0.2003,0,0,0,0,0,0,0.1908,0.1911,0.1913,0.1921,0.1924,0.1937,0.1936,0.1938,0.1946,0.1947,0.1953,0.1955,0.1956,0.1961,0.1962,0.1977,0.1964,0.1973,0.1973,0.1973,0.2002,0.2004,0.2005,0,0,0,0,0,0.1907,0.1912,0.1913,0.1915,0.1926,0.1938,0.1939,0.1946,0.1946,0.1951,0.1951,0.1955,0.1962,0.1961,0.1962,0.1978,0.1973,0.1973,0.1973,0.2001,0.2003,0.2005,0,0,0,0,0,0,0.1902,0.1913,0.1915,0.1922,0.1931,0.1939,0.1945,0.1948,0.1952,0.1953,0.1955,0.1956,0.1969,0.1963,0.1962,0.1979,0.1968,0.1969,0.1989,0.1991,0.1993,0.2017,0.1964,0,0,0,0,0,0.1901,0.1908,0.1918,0.1924,0.193,0.1937,0.1942,0.1948,0.1953,0.1955,0.1958,0.196,0.1969,0.1971,0.1976,0.1982,0.2011,0.1992,0.1994,0.1996,0.2014,0.2072,0.2082,0.1974,0.1974,0.1974,0,0,0.19,0.1908,0.1911,0.1924,0.1931,0.1942,0.1941,0.1952,0.1964,0.1956,0.1968,0.197,0.1972,0.1983,0.1988,0.1981,0.2039,0.1996,0.1997,0.2016,0.2074,0.2085,0.2094,0.1974,0.1974,0.1974,0,0,0.1903,0.1909,0.1916,0.1926,0.1941,0.1948,0.1952,0.1962,0.1969,0.1978,0.198,0.1992,0.1993,0.2005,0.201,0.2023,0.205,0.2018,0.2047,0.2103,0.2113,0.2123,0.2168,0.2182,0.2016,0.2016,0.2016,0,0.1901,0.1912,0.192,0.1932,0.1945,0.1951,0.1965,0.1973,0.1983,0.1998,0.1986,0.2015,0.2009,0.2043,0.2043,0.2032,0.2065,0.204,0.2109,0.2119,0.2128,0.2173,0.2187,0.2018,0.2017,0.2017,0.2017,0,0.1909,0.1922,0.1929,0.1947,0.196,0.1974,0.1989,0.2005,0.2011,0.2023,0.2056,0.2054,0.208,0.2071,0.206,0.2118,0.2121,0.2109,0.211,0.2141,0.2185,0.22,0.202,0.2019,0.2019,0.2018,0,0,0.1897,0.1928,0.1931,0.1947,0.1971,0.1985,0.2011,0.2043,0.2076,0.2081,0.213,0.2129,0.2142,0.2149,0.2143,0.2177,0.2256,0.217,0.2173,0.2228,0.2385,0.2337,0.2348,0.2263,0.2266,0.2268,0.2388,0,0.1902,0.1928,0.1944,0.1973,0.199,0.2015,0.2044,0.2075,0.2103,0.2151,0.2166,0.2204,0.2168,0.2191,0.2222,0.2255,0.2297,0.2225,0.2336,0.2339,0.2303,0.2364,0.2139,0.2223,0.2402,0.2405,0.2407,0,0.1904,0.1924,0.1952,0.1999,0.201,0.2031,0.2095,0.2123,0.2189,0.2216,0.2264,0.2286,0.2342,0.2304,0.2396,0.2356,0.2379,0.2394,0.2399,0.236,0.2319,0.222,0.2243,0.2431,0.2429,0.2427,0.2426,0,0.1891,0.1931,0.1956,0.197,0.2021,0.2049,0.208,0.2144,0.2187,0.2272,0.2325,0.2385,0.2439,0.2478,0.2506,0.2468,0.261,0.2561,0.2542,0.2538,0.2371,0.2348,0.264,0.264,0.264,0.2639,0.2639,0,0.1889,0.191,0.1955,0.1969,0.201,0.2051,0.211,0.2155,0.2242,0.2304,0.2363,0.2432,0.249,0.2567,0.2567,0.2612,0.2668,0.2574,0.2577,0.2371,0.2348,0.2542,0.2529,0.2644,0.2643,0.2642,0.2641,0,0.1868,0.1897,0.1927,0.1983,0.2003,0.2033,0.2116,0.2165,0.2254,0.2349,0.2386,0.2506,0.2601,0.2652,0.2735,0.27,0.2735,0.2734,0.2486,0.2457,0.2608,0.2595,0.2728,0.2728,0.2727,0.2727,0.2727,0,0.1858,0.1873,0.1925,0.1947,0.1973,0.2027,0.2066,0.2153,0.2211,0.238,0.2426,0.2569,0.2633,0.2748,0.2722,0.2743,0.2773,0.2541,0.2418,0.2634,0.2623,0.2611,0.2598,0.2205,0.2201,0.2197,0.2194,0,0.1842,0.1861,0.1888,0.1925,0.1964,0.2007,0.2074,0.2117,0.2232,0.2315,0.2432,0.2505,0.2623,0.2542,0.2587,0.2556,0.2514,0.2467,0.2786,0.2214,0.2149,0.2136,0.2139,0.2161,0.2164,0.2167,0.2169,0.217,0.1831,0.1838,0.1871,0.1902,0.1939,0.197,0.1983,0.2055,0.2121,0.2202,0.2331,0.2348,0.238,0.2323,0.2268,0.2221,0.2385,0.2246,0.2253,0.2266,0.2181,0.2118,0.2108,0.2111,0.2113,0.2116,0.2118,0,0.1799,0.1815,0.1846,0.1867,0.1871,0.1917,0.1972,0.1951,0.1972,0.2049,0.2104,0.1942,0.1908,0.1943,0.182,0.183,0.1778,0.175,0.1643,0.1679,0.171,0.1591,0.1365,0.1363,0.136,0.1358,0,0,0.1787,0.1787,0.1794,0.1782,0.1801,0.1778,0.1788,0.1758,0.1771,0.1719,0.1692,0.1818,0.1884,0.1589,0.1562,0.1438,0.1543,0.1385,0.1992,0.1902,0.193,0.2006,0.1867,0,0,0,0,0]},{"header":{"parameterUnit":"m.s-1","parameterCategory":2,"la1":30.2991,"la2":30.254,"lo1":-89.0895,"lo2":-89.0444,"dy":0.0017,"dx":0.0017,"nx":28,"ny":28,"refTime":"2023-10-07T03:00:00:Z","depth":"2","parameterNumber":3,"parameterNumberName":"V-component_of_CURRENTS"},"data":[0,0,0,0,0,0,0,0,0,0,0,0,0,0,0,0,0,0,0,0,0,0,0,0,0,0,0,0,0,0,0,0,0,0,0,0,0,0,0,0,0,0,0,0,0,0,0,0,0,0,0,0,0,0,0,0,0,0,-0.0011,-0.0011,0,-0.005,-0.005,-0.0051,-0.008,-0.0081,-0.0081,-0.0081,-0.014,-0.0142,-0.0143,0,0,0,0,0,0,0,0,0,0,0,0,0,0.0005,0.0005,-0.0011,-0.0011,-0.0012,-0.005,-0.005,-0.0051,-0.008,-0.0081,-0.0081,-0.0081,-0.014,-0.0142,-0.0143,0,0,0,0,0,0,0,0,0,0,0,0,0,-0.0015,0.0005,-0.0011,-0.0031,-0.0033,-0.005,-0.005,-0.0051,-0.008,-0.0081,-0.0081,-0.0081,-0.0139,-0.0141,-0.0143,-0.015,0,0,-0.015,-0.0151,0,0,0,0,0,0,0,0,-0.0014,-0.0015,-0.0027,-0.0029,-0.0032,-0.006,-0.0066,-0.0085,-0.008,-0.0063,-0.0081,-0.0081,-0.0115,-0.0119,-0.0126,-0.0153,-0.0155,-0.015,-0.0151,-0.0152,-0.0153,0,0,0,0,0,0,0,-0.0012,-0.0014,-0.0027,-0.0028,-0.003,-0.0049,-0.0052,-0.007,-0.0087,-0.0064,-0.0066,-0.007,-0.0116,-0.0124,-0.0128,-0.0156,-0.015,-0.0152,-0.0153,-0.0154,-0.0185,-0.0185,0,0,0,0,0,0,-0.0004,-0.0013,-0.0026,-0.0028,-0.0023,-0.0048,-0.0052,-0.0051,-0.0087,-0.0092,-0.0069,-0.0071,-0.012,-0.0125,-0.013,-0.0134,-0.0152,-0.0154,-0.0155,-0.0185,-0.0185,-0.0185,0,0,0,0,0,0,-0.0003,-0.0005,-0.0024,-0.0021,-0.0025,-0.0048,-0.0047,-0.0052,-0.0059,-0.009,-0.0096,-0.0072,-0.0121,-0.0127,-0.0141,-0.0136,-0.0155,-0.0157,-0.0186,-0.0185,-0.0185,-0.0145,0,0,0,0,0,0,-0.0003,-0.0004,-0.0001,-0.002,-0.0025,-0.0028,-0.0047,-0.0052,-0.006,-0.0063,-0.0094,-0.01,-0.0121,-0.0137,-0.0143,-0.014,-0.0158,-0.0186,-0.0186,-0.0185,-0.0146,-0.0143,-0.0139,0,0,0,0,0,-0.0002,0.0007,-0.0001,-0.0002,-0.0019,-0.0028,-0.0031,-0.005,-0.006,-0.0059,-0.0079,-0.0099,-0.0136,-0.0139,-0.0145,-0.0142,-0.0187,-0.0186,-0.0185,-0.0148,-0.0143,-0.014,0,0,0,0,0,0,0.0015,0.0004,-0.0004,0.0,-0.0011,-0.0032,-0.0033,-0.0046,-0.0062,-0.0065,-0.0095,-0.0102,-0.0112,-0.0131,-0.0133,-0.0148,-0.0165,-0.0165,-0.0134,-0.013,-0.0127,-0.0119,-0.016,0,0,0,0,0,0.0021,0.0025,0.0009,0.0013,0.0009,-0.0012,-0.0018,-0.0029,-0.0046,-0.0053,-0.0075,-0.0097,-0.0113,-0.0124,-0.0142,-0.0151,-0.0174,-0.0152,-0.0149,-0.0146,-0.0144,-0.0179,-0.0179,-0.0181,-0.0181,-0.0181,0,0,0.0028,0.0023,0.0025,0.0017,0.0006,0.0007,-0.0016,-0.0021,-0.002,-0.0057,-0.0063,-0.0086,-0.0113,-0.0122,-0.0128,-0.0137,-0.0155,-0.0145,-0.0142,-0.0141,-0.0178,-0.0178,-0.0178,-0.0181,-0.0181,-0.0181,0,0,0.0048,0.0041,0.0051,0.0045,0.0034,0.0023,0.0024,0.0005,-0.0004,-0.0013,-0.0038,-0.0057,-0.0082,-0.0101,-0.0113,-0.0101,-0.0135,-0.0106,-0.0084,-0.0119,-0.0119,-0.012,-0.0139,-0.0142,-0.0105,-0.0105,-0.0105,0,0.0056,0.0068,0.0052,0.0059,0.006,0.0033,0.0044,0.0032,0.001,0.0006,-0.0009,-0.0049,-0.0072,-0.0086,-0.0081,-0.0094,-0.0114,-0.0098,-0.0115,-0.0116,-0.0117,-0.0137,-0.0141,-0.0103,-0.0103,-0.0103,-0.0103,0,0.0082,0.009,0.0096,0.0098,0.0096,0.0101,0.0085,0.008,0.0064,0.0047,0.0029,-0.0007,-0.0031,-0.0042,-0.0059,-0.0075,-0.0086,-0.0106,-0.0126,-0.0115,-0.0136,-0.014,-0.01,-0.0101,-0.0101,-0.0102,0,0,0.0107,0.0113,0.0117,0.0128,0.0118,0.0123,0.0124,0.0119,0.0123,0.0089,0.0086,0.0049,0.0022,0.0006,-0.0023,-0.0053,-0.0078,-0.008,-0.0082,-0.0098,-0.0145,-0.0134,-0.0138,-0.0104,-0.0105,-0.0105,-0.0153,0,0.0134,0.0162,0.0155,0.0182,0.0196,0.0177,0.0185,0.0175,0.0155,0.0145,0.0097,0.0081,0.0042,0.0031,-0.0007,-0.0057,-0.0089,-0.0063,-0.0154,-0.0156,-0.0148,-0.0143,-0.0109,-0.0147,-0.0158,-0.0158,-0.0159,0,0.0165,0.0181,0.0214,0.0234,0.0238,0.025,0.0259,0.0261,0.0234,0.0216,0.0178,0.0139,0.0094,0.0056,-0.0035,-0.0017,-0.0076,-0.0122,-0.0125,-0.0133,-0.0153,-0.0162,-0.0155,-0.0167,-0.0166,-0.0165,-0.0165,0,0.0203,0.0225,0.0256,0.0262,0.0276,0.0291,0.0297,0.0285,0.0297,0.0257,0.0256,0.0185,0.0162,0.0069,-0.0022,-0.0033,-0.0122,-0.0151,-0.0199,-0.0198,-0.0196,-0.0194,-0.0222,-0.0222,-0.0222,-0.0222,-0.0222,0,0.0239,0.0264,0.0279,0.0299,0.0343,0.0334,0.0372,0.0363,0.0358,0.0386,0.0297,0.0305,0.0163,0.0097,-0.0005,-0.0104,-0.0112,-0.0192,-0.0212,-0.0179,-0.0175,-0.0215,-0.0214,-0.0224,-0.0224,-0.0223,-0.0223,0,0.0276,0.0284,0.0324,0.0351,0.0365,0.0396,0.0434,0.0461,0.044,0.0472,0.0464,0.0396,0.0315,0.0175,0.0036,-0.0061,-0.0171,-0.0207,-0.0149,-0.0161,-0.0231,-0.0227,-0.0271,-0.0271,-0.0271,-0.0271,-0.0272,0,0.0298,0.0324,0.037,0.0404,0.042,0.0464,0.0505,0.0506,0.0541,0.0545,0.0574,0.05,0.0475,0.0269,0.0082,-0.0099,-0.0142,-0.0195,-0.0216,-0.0222,-0.0237,-0.0233,-0.0229,-0.0196,-0.0196,-0.0195,-0.0195,0,0.0345,0.036,0.0397,0.0466,0.0518,0.0573,0.0629,0.0673,0.0689,0.072,0.0758,0.0737,0.0547,0.0379,0.012,-0.0003,-0.0167,-0.019,-0.0219,-0.0183,-0.0154,-0.0167,-0.0166,-0.019,-0.0191,-0.0191,-0.0191,-0.0192,0.0384,0.0418,0.0471,0.0536,0.0598,0.0677,0.0736,0.0804,0.0881,0.0936,0.091,0.0881,0.0671,0.0356,0.0135,-0.0113,-0.0112,-0.0207,-0.0207,-0.0209,-0.0185,-0.0157,-0.019,-0.019,-0.0191,-0.0191,-0.0191,0,0.0435,0.0472,0.0538,0.062,0.0697,0.0714,0.082,0.089,0.1002,0.1034,0.1063,0.0886,0.0682,0.0423,0.0075,-0.0132,-0.0159,-0.0207,-0.0196,-0.0197,-0.02,-0.0176,-0.0178,-0.0179,-0.018,-0.018,0,0,0.0466,0.0536,0.0567,0.0695,0.0752,0.0862,0.0927,0.1035,0.1087,0.1142,0.1116,0.1053,0.0752,0.0505,0.0224,0.0019,-0.0048,-0.0025,-0.001,0.0036,0.0036,-0.017,-0.0131,0,0,0,0,0]}],[{"header":{"parameterUnit":"m.s-1","parameterCategory":2,"la1":30.2991,"la2":30.254,"lo1":-89.0895,"lo2":-89.0444,"dy":0.0017,"dx":0.0017,"nx":28,"ny":28,"refTime":"2023-10-07T03:00:00:Z","depth":"4","parameterNumber":2,"parameterNumberName":"U-component_of_CURRENTS"},"data":[0,0,0,0,0,0,0,0,0,0,0,0,0,0,0,0,0,0,0,0,0,0,0,0,0,0,0,0,0,0,0,0,0,0,0,0,0,0,0,0,0,0,0,0,0,0,0,0,0,0,0,0,0,0,0,0,0,0,0.1243,0.1244,0,0.1273,0.1273,0.1273,0.131,0.1311,0.1312,0.1312,0.1354,0.1354,0.1355,0,0,0,0,0,0,0,0,0,0,0,0,0,0.1199,0.1199,0.1243,0.1244,0.1244,0.1273,0.1273,0.1273,0.131,0.1311,0.1312,0.1313,0.1354,0.1354,0.1355,0,0,0,0,0,0,0,0,0,0,0,0,0,0.1221,0.12,0.1243,0.1267,0.127,0.1273,0.1273,0.1273,0.131,0.1311,0.1312,0.1313,0.1353,0.1354,0.1355,0.1336,0,0,0.1356,0.1357,0,0,0,0,0,0,0,0,0.1219,0.1222,0.1263,0.1266,0.1269,0.1291,0.1273,0.1296,0.1309,0.1293,0.1312,0.1314,0.1334,0.1336,0.1337,0.1338,0.134,0.1357,0.1357,0.1357,0.1357,0,0,0,0,0,0,0,0.1218,0.1221,0.1253,0.1264,0.1267,0.127,0.1274,0.1277,0.1306,0.1294,0.1298,0.1303,0.1335,0.1336,0.1338,0.134,0.1357,0.1357,0.1357,0.1358,0.1419,0.142,0,0,0,0,0,0,0.1217,0.1219,0.1252,0.1254,0.1248,0.127,0.1275,0.1281,0.1305,0.1311,0.1302,0.1305,0.1334,0.1337,0.134,0.1401,0.1357,0.1358,0.1358,0.1417,0.1419,0.142,0,0,0,0,0,0,0.1216,0.122,0.1251,0.1239,0.1243,0.127,0.1276,0.1281,0.1312,0.1312,0.1317,0.1332,0.1335,0.1339,0.137,0.14,0.1358,0.1359,0.1416,0.1418,0.142,0.1472,0,0,0,0,0,0,0.1215,0.1219,0.1236,0.1239,0.1244,0.1273,0.1276,0.1281,0.1313,0.1317,0.1338,0.1342,0.1336,0.1369,0.137,0.14,0.1359,0.1414,0.1417,0.1419,0.1468,0.1475,0.1481,0,0,0,0,0,0.1213,0.1229,0.1237,0.1242,0.1262,0.1274,0.1278,0.1299,0.1313,0.133,0.1348,0.1343,0.1385,0.137,0.1372,0.1402,0.1413,0.1416,0.1419,0.1466,0.1474,0.1481,0,0,0,0,0,0,0.1219,0.1234,0.1243,0.1263,0.1278,0.1282,0.1304,0.1314,0.134,0.1355,0.1354,0.1358,0.1398,0.1392,0.1375,0.1427,0.14,0.1403,0.1435,0.1443,0.1449,0.1453,0.136,0,0,0,0,0,0.1226,0.1246,0.1255,0.1276,0.1286,0.13,0.1313,0.1327,0.1343,0.1357,0.1372,0.1389,0.1404,0.1418,0.1428,0.1453,0.1454,0.1475,0.1481,0.1486,0.1492,0.1512,0.152,0.143,0.143,0.1429,0,0,0.1235,0.1247,0.1259,0.1279,0.1294,0.1311,0.1312,0.1341,0.1363,0.1356,0.1402,0.1413,0.1416,0.1448,0.1465,0.1451,0.1517,0.149,0.1495,0.1497,0.1516,0.1524,0.1532,0.1431,0.1431,0.1431,0,0,0.1251,0.1273,0.1291,0.1306,0.1334,0.134,0.1356,0.1377,0.14,0.1433,0.1439,0.1469,0.1491,0.1501,0.1506,0.1552,0.1549,0.1562,0.1598,0.1618,0.1625,0.1632,0.166,0.1669,0.1565,0.1565,0.1565,0,0.1263,0.1284,0.1299,0.1319,0.1337,0.1357,0.1379,0.1399,0.1431,0.1452,0.1459,0.1507,0.1515,0.1548,0.157,0.1567,0.1581,0.1568,0.1626,0.1632,0.1638,0.1665,0.1674,0.1568,0.1568,0.1567,0.1567,0,0.1281,0.1309,0.1324,0.1354,0.1375,0.1401,0.1425,0.1458,0.1489,0.1505,0.1558,0.1569,0.1598,0.1609,0.1606,0.1654,0.1654,0.1631,0.1605,0.165,0.1676,0.1685,0.1572,0.1571,0.157,0.157,0,0,0.1274,0.1326,0.1334,0.1356,0.1399,0.1414,0.1461,0.1498,0.1533,0.1571,0.161,0.165,0.1666,0.1674,0.1679,0.1699,0.176,0.1692,0.1692,0.1719,0.182,0.1716,0.1715,0.1751,0.1752,0.1753,0.1827,0,0.1286,0.1325,0.1351,0.1396,0.1417,0.1456,0.1494,0.1535,0.1573,0.1615,0.1643,0.1683,0.1688,0.1712,0.1736,0.1752,0.1782,0.1743,0.1773,0.1775,0.1675,0.1721,0.1757,0.1833,0.1835,0.1836,0.1837,0,0.1287,0.1316,0.1361,0.1418,0.1433,0.1468,0.1534,0.1572,0.1631,0.1664,0.1712,0.1729,0.1783,0.1767,0.1834,0.1813,0.183,0.1835,0.1837,0.1726,0.1685,0.1775,0.1851,0.185,0.1849,0.1848,0.1847,0,0.1259,0.1321,0.1359,0.1379,0.1445,0.1485,0.1529,0.1594,0.1631,0.1702,0.1736,0.179,0.1832,0.1857,0.189,0.1871,0.1948,0.1914,0.1839,0.1833,0.188,0.1872,0.1957,0.1957,0.1957,0.1957,0.1957,0,0.1242,0.1276,0.1357,0.1375,0.1429,0.1485,0.1548,0.1599,0.1668,0.171,0.1768,0.1802,0.186,0.1903,0.1913,0.191,0.1975,0.1855,0.1843,0.1903,0.1896,0.1887,0.1878,0.196,0.1959,0.1959,0.1958,0,0.1195,0.125,0.1297,0.1383,0.1416,0.1457,0.1554,0.1589,0.1675,0.173,0.1757,0.1837,0.1899,0.1942,0.199,0.1938,0.1938,0.192,0.2007,0.1996,0.1806,0.1799,0.1834,0.183,0.1828,0.1826,0.1824,0,0.1169,0.1192,0.1291,0.1325,0.1371,0.1444,0.1488,0.1582,0.1616,0.1737,0.1748,0.1842,0.1885,0.1874,0.193,0.1943,0.1919,0.1907,0.183,0.1808,0.1793,0.179,0.1787,0.182,0.1819,0.1818,0.1818,0,0.1118,0.1169,0.1209,0.1276,0.1334,0.1381,0.1456,0.1468,0.1572,0.1667,0.1693,0.1713,0.1781,0.1807,0.184,0.184,0.1899,0.1879,0.1883,0.1811,0.1792,0.1779,0.1778,0.1809,0.181,0.1811,0.1811,0,0.1086,0.1099,0.1161,0.1209,0.1274,0.1292,0.1343,0.1384,0.1427,0.1556,0.1568,0.1669,0.1765,0.1757,0.1783,0.1781,0.1745,0.167,0.1684,0.1695,0.1613,0.1567,0.1511,0,0,0,0,0,0.104,0.1045,0.1086,0.1123,0.1182,0.1218,0.1304,0.1355,0.1458,0.1438,0.1494,0.1545,0.158,0.1632,0.1601,0.173,0.1757,0.1686,0.1679,0.1759,0.1769,0.1684,0,0,0,0,0,0,0.1008,0.1042,0.1053,0.1039,0.1049,0.1094,0.1145,0.1221,0.1213,0.133,0.1357,0.1448,0.1508,0.158,0.1569,0.1587,0.155,0.1756,0.1752,0.1753,0.1762,0.177,0.1687,0,0,0,0,0]},{"header":{"parameterUnit":"m.s-1","parameterCategory":2,"la1":30.2991,"la2":30.254,"lo1":-89.0895,"lo2":-89.0444,"dy":0.0017,"dx":0.0017,"nx":28,"ny":28,"refTime":"2023-10-07T03:00:00:Z","depth":"4","parameterNumber":3,"parameterNumberName":"V-component_of_CURRENTS"},"data":[0,0,0,0,0,0,0,0,0,0,0,0,0,0,0,0,0,0,0,0,0,0,0,0,0,0,0,0,0,0,0,0,0,0,0,0,0,0,0,0,0,0,0,0,0,0,0,0,0,0,0,0,0,0,0,0,0,0,0.0192,0.0191,0,0.017,0.017,0.017,0.0158,0.0158,0.0158,0.0158,0.013,0.0129,0.0128,0,0,0,0,0,0,0,0,0,0,0,0,0,0.02,0.02,0.0192,0.0191,0.0191,0.017,0.017,0.017,0.0158,0.0158,0.0158,0.0158,0.013,0.0129,0.0128,0,0,0,0,0,0,0,0,0,0,0,0,0,0.0189,0.02,0.0192,0.0183,0.0182,0.017,0.017,0.017,0.0158,0.0158,0.0158,0.0158,0.013,0.0129,0.0128,0.0122,0,0,0.0125,0.0124,0,0,0,0,0,0,0,0,0.019,0.0189,0.0184,0.0183,0.0182,0.0167,0.0163,0.0153,0.0158,0.0167,0.0158,0.0158,0.0142,0.014,0.0136,0.0121,0.0119,0.0125,0.0124,0.0124,0.0123,0,0,0,0,0,0,0,0.0191,0.019,0.0183,0.0184,0.0183,0.0172,0.0171,0.0161,0.0155,0.0166,0.0165,0.0163,0.0141,0.0137,0.0135,0.0119,0.0125,0.0124,0.0123,0.0123,0.0087,0.0087,0,0,0,0,0,0,0.0195,0.019,0.0184,0.0182,0.0186,0.0172,0.0171,0.0172,0.0155,0.0152,0.0163,0.0163,0.0139,0.0136,0.0134,0.0127,0.0124,0.0123,0.0122,0.0088,0.0087,0.0087,0,0,0,0,0,0,0.0195,0.0194,0.0185,0.0186,0.0184,0.0172,0.0173,0.0171,0.0168,0.0153,0.015,0.0163,0.0138,0.0135,0.0126,0.0126,0.0122,0.0121,0.0088,0.0088,0.0087,0.0112,0,0,0,0,0,0,0.0195,0.0195,0.0198,0.0186,0.0184,0.018,0.0173,0.0171,0.0167,0.0166,0.0151,0.0148,0.0138,0.0128,0.0125,0.0124,0.012,0.0088,0.0088,0.0087,0.0111,0.0112,0.0113,0,0,0,0,0,0.0196,0.02,0.0198,0.0197,0.0188,0.018,0.0178,0.017,0.0167,0.0167,0.0157,0.0149,0.0123,0.0127,0.0124,0.0122,0.0089,0.0088,0.0087,0.0111,0.0112,0.0113,0,0,0,0,0,0,0.0205,0.0199,0.0197,0.0199,0.0192,0.0179,0.0178,0.0172,0.0163,0.0164,0.0149,0.0145,0.0136,0.0124,0.013,0.0109,0.0103,0.0101,0.0122,0.0123,0.0124,0.0143,0.0119,0,0,0,0,0,0.0209,0.0212,0.0202,0.0205,0.0202,0.0191,0.0187,0.0181,0.0171,0.0168,0.0156,0.0142,0.013,0.0124,0.0111,0.0103,0.0096,0.0097,0.0098,0.0099,0.0111,0.0105,0.0107,0.0085,0.0085,0.0085,0,0,0.0213,0.0211,0.0212,0.0207,0.0201,0.0201,0.0188,0.0185,0.0186,0.0166,0.0163,0.0146,0.0128,0.0118,0.0112,0.011,0.0098,0.0098,0.0099,0.0111,0.0105,0.0107,0.0109,0.0085,0.0085,0.0085,0,0,0.0223,0.0221,0.0227,0.0223,0.0216,0.021,0.021,0.0198,0.0193,0.0186,0.0171,0.0157,0.0137,0.0126,0.0117,0.0115,0.0103,0.0104,0.0126,0.012,0.0122,0.0124,0.0105,0.0106,0.0105,0.0105,0.0105,0,0.0229,0.0237,0.0227,0.0231,0.0233,0.0216,0.0224,0.0215,0.0201,0.0203,0.0188,0.0164,0.0143,0.0139,0.0133,0.0119,0.011,0.0125,0.0123,0.0125,0.0126,0.0107,0.0107,0.0106,0.0106,0.0106,0.0106,0,0.0242,0.025,0.0253,0.0256,0.0255,0.0259,0.0248,0.0245,0.0236,0.0228,0.022,0.0191,0.0181,0.0162,0.0146,0.0145,0.0132,0.0126,0.0125,0.0131,0.0109,0.0108,0.0108,0.0107,0.0107,0.0107,0,0,0.0255,0.0263,0.0266,0.0279,0.0272,0.0277,0.0278,0.028,0.0294,0.0265,0.0281,0.024,0.0228,0.0217,0.0191,0.0178,0.0167,0.0158,0.0157,0.0148,0.0147,0.0118,0.0115,0.0163,0.0163,0.0164,0.0122,0,0.0272,0.0294,0.029,0.0315,0.0328,0.0319,0.0328,0.0326,0.0319,0.0327,0.0294,0.0292,0.0248,0.0245,0.0225,0.0188,0.0169,0.0179,0.0136,0.0135,0.0116,0.0115,0.0165,0.0122,0.0122,0.0122,0.0122,0,0.029,0.0305,0.0334,0.0362,0.0367,0.038,0.0405,0.0409,0.0408,0.0403,0.0391,0.0365,0.0338,0.0303,0.0243,0.0252,0.0204,0.0168,0.0166,0.0135,0.0106,0.0117,0.0121,0.0121,0.0121,0.0121,0.0121,0,0.0318,0.034,0.0371,0.0378,0.0399,0.0418,0.0431,0.0437,0.0457,0.0455,0.0468,0.0428,0.0418,0.0356,0.0266,0.026,0.0202,0.0184,0.0111,0.0108,0.0136,0.0135,0.0148,0.0148,0.0149,0.0149,0.0149,0,0.0341,0.0368,0.0391,0.041,0.0458,0.0458,0.0508,0.0511,0.0531,0.0562,0.0515,0.0523,0.0433,0.0381,0.0295,0.0199,0.0221,0.0119,0.01,0.0144,0.0144,0.0135,0.0134,0.0147,0.0147,0.0148,0.0148,0,0.0366,0.0379,0.0421,0.0457,0.0475,0.051,0.0562,0.0596,0.0603,0.0643,0.0645,0.0602,0.0524,0.0421,0.0319,0.024,0.0148,0.0108,0.0158,0.0142,0.005,0.0051,0.0028,0.0027,0.0026,0.0025,0.0024,0,0.038,0.0405,0.0461,0.0495,0.0516,0.0568,0.061,0.0633,0.0668,0.0686,0.0709,0.0649,0.06,0.0438,0.032,0.0153,0.0123,0.0074,0.0062,0.0056,0.004,0.0042,0.0044,0.0022,0.0022,0.0022,0.0022,0,0.041,0.0432,0.0468,0.0537,0.0591,0.0648,0.0704,0.0735,0.0762,0.0771,0.0757,0.0666,0.0579,0.0436,0.0305,0.0184,0.0107,0.0063,0.0064,0.0052,0.0049,0.0035,0.0038,0.0018,0.0018,0.0019,0.0019,0,0.0436,0.0467,0.0519,0.0577,0.0646,0.0707,0.0734,0.0769,0.08,0.0808,0.0801,0.0698,0.0641,0.0452,0.0334,0.0208,0.017,0.0126,0.0123,0.0126,0.0158,0.0168,0.0163,0,0,0,0,0,0.0457,0.0494,0.0554,0.062,0.0686,0.0726,0.079,0.0809,0.0834,0.0828,0.0814,0.0724,0.0542,0.0468,0.0337,0.0304,0.0145,0.0145,0.0093,-0.0002,0.0002,0.0019,0,0,0,0,0,0,0.0474,0.0531,0.0556,0.0643,0.0692,0.077,0.0812,0.0829,0.0821,0.0822,0.0728,0.0683,0.0507,0.0616,0.0332,0.0295,0.0241,0.0062,0.0059,-0.0005,-0.0001,0.0002,0.0021,0,0,0,0,0]}]]